Baker, OR

3:24 AM PDT on September 26, 2017 (GMT -0700)
Baker City Municipal

Weather History for KBKE - October, 2012

Change the Weather History Date:

Saturday, October 13, 2012

  Actual Average Record
Temperature  
Mean Temperature 51 °F 46 °F  
Max Temperature 65 °F 63 °F 80 °F (1964)
Min Temperature 37 °F 28 °F 11 °F (1969)
Degree Days  
Heating Degree Days 14 19  
Month to date heating degree days 244 224  
Since 1 July heating degree days 535 666  
Cooling Degree Days 0 0  
Month to date cooling degree days 0 0  
Year to date cooling degree days 184 169  
Growing Degree Days 4 (Base 50)    
Moisture  
Dew Point 43 °F    
Average Humidity 70    
Maximum Humidity 100    
Minimum Humidity 40    
Precipitation  
Precipitation T in 0.01 in 0.37 in (1993)
Month to date precipitation 0.03 0.22  
Year to date precipitation 6.26 7.84  
Sea Level Pressure  
Sea Level Pressure 30.19 in    
Wind  
Wind Speed 3 mph (SSW)    
Max Wind Speed 13 mph    
Max Gust Speed 16 mph    
Visibility 10 miles    
Events Rain    
T = Trace of Precipitation, MM = Missing Value Source: NWS Daily Summary

Daily Weather History Graph

Daily Weather History Graph

Search for Another Location

Airport or City:

Trip Planner

Search our weather history database for the weather conditions in past years. The results will help you decide how hot, cold, wet, or windy it might be!

Date:

Astronomy

Oct. 13, 2012 Rise Set
Actual Time 7:04 AM PDT 6:08 PM PDT
Civil Twilight 6:35 AM PDT 6:38 PM PDT
Nautical Twilight 6:01 AM PDT 7:12 PM PDT
Astronomical Twilight 5:27 AM PDT 7:46 PM PDT
Moon 4:56 AM PDT (10/13) 4:57 PM PDT (10/13)
Length of Visible Light 12h 02m
Length of Day
11h 04m
Waning Crescent, 4% of the Moon is Illuminated
Oct 13
Waning Crescent
Oct 15
New
Oct 21
First Quarter
Oct 29
Full
Nov 6
Last Quarter

Hourly Weather History & Observations

Time (PDT) Temp. Windchill Dew Point Humidity Pressure Visibility Wind Dir Wind Speed Gust Speed Precip Events Conditions
12:53 AM 50.0 °F - 46.0 °F 86% 30.01 in 10.0 mi Calm Calm - 0.00 in Rain Light Rain
1:53 AM 50.0 °F - 46.9 °F 89% 30.03 in 10.0 mi WSW 4.6 mph - 0.00 in   Overcast
2:53 AM 48.9 °F - 46.9 °F 93% 30.04 in 10.0 mi SSW 5.8 mph - 0.00 in   Mostly Cloudy
3:53 AM 46.0 °F - 45.0 °F 96% 30.05 in 10.0 mi Calm Calm - N/A   Partly Cloudy
4:53 AM 43.0 °F - 42.1 °F 97% 30.12 in 10.0 mi Calm Calm - N/A   Mostly Cloudy
5:53 AM 46.9 °F - 45.0 °F 93% 30.13 in 10.0 mi SSE 5.8 mph - N/A   Overcast
6:53 AM 48.0 °F - 45.0 °F 89% 30.17 in 10.0 mi Calm Calm - N/A   Overcast
7:53 AM 48.9 °F - 46.0 °F 90% 30.19 in 10.0 mi Calm Calm - N/A   Overcast
8:53 AM 51.1 °F - 46.9 °F 86% 30.22 in 10.0 mi South 3.5 mph - N/A   Overcast
9:53 AM 54.0 °F - 48.0 °F 80% 30.23 in 10.0 mi Calm Calm - N/A   Overcast
10:53 AM 55.9 °F - 46.9 °F 72% 30.24 in 10.0 mi NNE 3.5 mph - N/A   Mostly Cloudy
11:53 AM 61.0 °F - 46.0 °F 58% 30.23 in 10.0 mi Variable 3.5 mph - N/A   Clear
12:53 PM 60.8 °F - 44.6 °F 55% 30.25 in 10.0 mi Variable 3.5 mph - N/A   Mostly Cloudy
1:53 PM 63.0 °F - 44.1 °F 50% 30.22 in 4.0 mi SW 3.5 mph - N/A   Haze
2:53 PM 64.0 °F - 42.1 °F 45% 30.22 in 10.0 mi WNW 11.5 mph - N/A   Overcast
3:53 PM 64.0 °F - 39.0 °F 40% 30.21 in 10.0 mi Variable 3.5 mph - N/A   Clear
5:53 PM 60.1 °F - 39.0 °F 46% 30.24 in 10.0 mi West 3.5 mph - N/A   Scattered Clouds
6:53 PM 57.2 °F - 42.8 °F 59% 30.24 in 10.0 mi Calm Calm - N/A   Overcast
7:53 PM 54.0 °F - 41.0 °F 62% 30.25 in 10.0 mi Calm Calm - N/A   Mostly Cloudy
8:53 PM 46.9 °F - 37.9 °F 71% 30.27 in 10.0 mi SSE 4.6 mph - N/A   Clear
9:53 PM 44.6 °F 41.4 °F 37.4 °F 76% 30.26 in 10.0 mi SSE 5.8 mph - N/A   Clear
10:53 PM 45.0 °F - 39.0 °F 80% 30.26 in 10.0 mi Calm Calm - N/A   Clear
11:53 PM 37.9 °F 35.5 °F 35.1 °F 89% 30.27 in 10.0 mi ENE 3.5 mph - N/A   Partly Cloudy